Change the Weather History Date:

Monday, November 29, 2010

  Actual Average Record
Temperature  
Mean Temperature 19 °F 21 °F  
Max Temperature 23 °F 29 °F 61 °F (1909)
Min Temperature 15 °F 13 °F -20 °F (1964)
Degree Days  
Heating Degree Days 46 44  
Month to date heating degree days 1063 1053  
Since 1 July heating degree days 1818 2013  
Moisture  
Dew Point 13 °F    
Average Humidity 79    
Maximum Humidity 84    
Minimum Humidity 73    
Precipitation  
Precipitation 0.04 in 0.01 in 0.15 in (1975)
Month to date precipitation 0.26 0.73  
Year to date precipitation 21.02 16.79  
Sea Level Pressure  
Sea Level Pressure 29.95 in    
Wind  
Wind Speed 22 mph (NW)    
Max Wind Speed 32 mph    
Max Gust Speed 41 mph    
Visibility 5 miles    
Events Snow    
T = Trace of Precipitation, MM = Missing Value Source: NWS Daily Summary

Daily Weather History Graph

Daily Weather History Graph

Search for Another Location

Airport or City:

Trip Planner

Search our weather history database for the weather conditions in past years. The results will help you decide how hot, cold, wet, or windy it might be!

Date:

Astronomy

Nov. 29, 2010 Rise Set
Actual Time 8:12 AM CST 4:54 PM CST
Civil Twilight 7:36 AM CST 5:29 PM CST
Nautical Twilight 6:57 AM CST 6:08 PM CST
Astronomical Twilight 6:20 AM CST 6:46 PM CST
Moon 12:51 AM CST (11/29) 1:21 PM CST (11/29)
Length of Visible Light 9h 53m
Length of Day
8h 41m
Last Quarter, 40% of the Moon is Illuminated
Nov 29
Last Quarter
Dec 5
New
Dec 13
First Quarter
Dec 21
Full
Dec 27
Last Quarter

Hourly Weather History & Observations

Time (CST) Temp. Windchill Dew Point Humidity Pressure Visibility Wind Dir Wind Speed Gust Speed Precip Events Conditions
12:16 AM 17.6 °F 1.7 °F 12.2 °F 79% 29.73 in 10.0 mi NNW 18.4 mph 26.5 mph N/A   Overcast
12:54 AM 18.0 °F -0.2 °F 12.0 °F 78% 29.82 in 10.0 mi North 25.3 mph 31.1 mph N/A   Overcast
1:02 AM 17.6 °F -0.3 °F 12.2 °F 79% 29.73 in 10.0 mi North 24.2 mph 31.1 mph N/A   Overcast
1:15 AM 17.6 °F -0.6 °F 12.2 °F 79% 29.74 in 9.0 mi North 25.3 mph 32.2 mph N/A   Overcast
1:32 AM 17.6 °F 0.5 °F 12.2 °F 79% 29.74 in 7.0 mi North 21.9 mph 31.1 mph N/A   Overcast
1:54 AM 17.1 °F 0.1 °F 12.9 °F 84% 29.84 in 8.0 mi NNW 20.7 mph 28.8 mph N/A   Overcast
2:29 AM 17.6 °F 2.2 °F 12.2 °F 79% 29.76 in 9.0 mi NNW 17.3 mph 27.6 mph 0.00 in   Overcast
2:54 AM 17.1 °F 2.5 °F 12.9 °F 84% 29.87 in 4.0 mi NNW 15.0 mph - 0.00 in   Overcast
3:54 AM 18.0 °F 3.1 °F 12.9 °F 81% 29.88 in 4.0 mi NNW 16.1 mph 23.0 mph 0.00 in Snow Light Snow
4:07 AM 17.6 °F 3.2 °F 12.2 °F 79% 29.80 in 2.0 mi NNW 15.0 mph - 0.00 in Snow Light Snow
4:13 AM 17.6 °F 2.7 °F 14.0 °F 86% 29.80 in 1.5 mi NNW 16.1 mph - 0.00 in Snow Light Snow
4:21 AM 17.6 °F 3.7 °F 14.0 °F 86% 29.80 in 1.2 mi NNW 13.8 mph - 0.00 in Snow Light Snow
4:54 AM 18.0 °F 3.1 °F 14.0 °F 84% 29.90 in 1.2 mi NW 16.1 mph - 0.00 in Snow Light Snow
5:39 AM 17.6 °F 0.9 °F 14.0 °F 86% 29.82 in 0.8 mi NNW 20.7 mph 26.5 mph 0.01 in Snow Light Snow
5:47 AM 17.6 °F 1.3 °F 14.0 °F 86% 29.83 in 1.0 mi NW 19.6 mph - 0.01 in Snow Light Snow
5:54 AM 18.0 °F 1.7 °F 14.0 °F 84% 29.92 in 1.5 mi NW 19.6 mph 27.6 mph 0.01 in Snow Light Snow
6:37 AM 17.6 °F 0.1 °F 12.2 °F 79% 29.84 in 2.0 mi NW 23.0 mph 28.8 mph 0.01 in Snow Light Snow
6:50 AM 17.6 °F 0.1 °F 12.2 °F 79% 29.84 in 1.8 mi NW 23.0 mph 27.6 mph 0.01 in Snow Light Snow
6:54 AM 17.6 °F 1.3 °F 14.0 °F 86% 29.85 in 1.8 mi NW 19.6 mph - N/A Snow Light Snow
7:08 AM 17.6 °F 0.1 °F 12.2 °F 79% 29.85 in 1.2 mi NW 23.0 mph 28.8 mph 0.00 in Snow Light Snow
7:54 AM 18.0 °F 0.6 °F 12.9 °F 81% 29.96 in 1.5 mi NW 23.0 mph 28.8 mph 0.00 in Snow Light Snow
8:37 AM 19.4 °F 3.2 °F 14.0 °F 80% 29.88 in 0.8 mi NW 20.7 mph - 0.00 in Snow Light Snow
8:54 AM 19.4 °F 2.8 °F 15.8 °F 86% 29.89 in 0.8 mi NW 21.9 mph 26.5 mph N/A Snow Light Snow
9:54 AM 19.9 °F 3.5 °F 16.0 °F 85% 30.00 in 0.8 mi NW 21.9 mph 29.9 mph 0.01 in Snow Light Snow
10:54 AM 19.9 °F 3.5 °F 16.0 °F 85% 30.02 in 0.8 mi NW 21.9 mph 29.9 mph 0.00 in Snow Light Snow
11:54 AM 21.0 °F 4.6 °F 17.1 °F 85% 30.02 in 1.0 mi NW 23.0 mph 28.8 mph 0.01 in Snow Light Snow
12:05 PM 21.2 °F 4.2 °F 17.6 °F 86% 29.93 in 1.0 mi NW 25.3 mph 34.5 mph 0.00 in Snow Light Snow
12:44 PM 21.2 °F 4.5 °F 17.6 °F 86% 29.94 in 1.0 mi NW 24.2 mph 35.7 mph 0.00 in Snow Light Snow
12:54 PM 21.9 °F 5.5 °F 17.1 °F 82% 30.04 in 1.8 mi NW 24.2 mph 36.8 mph 0.00 in Snow Light Snow
12:58 PM 21.2 °F 4.2 °F 17.6 °F 86% 29.94 in 3.0 mi NW 25.3 mph 35.7 mph 0.00 in   Haze
1:54 PM 23.0 °F 6.6 °F 17.6 °F 80% 29.95 in 9.0 mi NW 25.3 mph 33.4 mph N/A   Overcast
2:48 PM 21.2 °F 3.0 °F 15.8 °F 80% 29.97 in 2.5 mi NW 29.9 mph 39.1 mph 0.00 in   Overcast
2:50 PM 21.2 °F 3.0 °F 15.8 °F 80% 29.97 in 3.0 mi NW 29.9 mph 39.1 mph 0.00 in   Overcast
2:54 PM 21.0 °F 2.4 °F 15.1 °F 78% 30.07 in 4.0 mi NW 31.1 mph 36.8 mph 0.00 in   Haze
3:54 PM 19.9 °F 1.8 °F 12.9 °F 74% 30.10 in 7.0 mi NW 27.6 mph 36.8 mph N/A   Overcast
4:36 PM 17.6 °F -0.3 °F 10.4 °F 73% 30.03 in 6.0 mi WNW 24.2 mph 31.1 mph N/A   Haze
4:47 PM 17.6 °F -0.3 °F 10.4 °F 73% 30.04 in 8.0 mi WNW 24.2 mph - N/A   Scattered Clouds
4:54 PM 17.1 °F -1.4 °F 10.0 °F 74% 30.14 in 8.0 mi WNW 25.3 mph - N/A   Partly Cloudy
5:54 PM 16.0 °F -2.5 °F 10.0 °F 77% 30.17 in 7.0 mi WNW 24.2 mph - N/A   Clear
6:45 PM 15.8 °F -1.1 °F 8.6 °F 73% 30.07 in 10.0 mi WNW 19.6 mph - N/A   Mostly Cloudy
6:54 PM 16.0 °F -0.4 °F 10.0 °F 77% 30.17 in 10.0 mi WNW 18.4 mph - N/A   Overcast
7:54 PM 18.0 °F -1.1 °F 10.9 °F 74% 30.18 in 5.0 mi NW 28.8 mph 33.4 mph 0.00 in   Haze
8:54 PM 17.6 °F 0.9 °F 10.4 °F 73% 30.08 in 8.0 mi NW 20.7 mph 32.2 mph N/A Snow Light Snow
9:54 PM 18.0 °F 1.7 °F 10.9 °F 74% 30.19 in 10.0 mi NW 19.6 mph - 0.00 in   Overcast
10:54 PM 19.0 °F 3.6 °F 12.0 °F 74% 30.18 in 10.0 mi WNW 18.4 mph - N/A   Overcast
11:54 PM 19.0 °F 2.4 °F 12.9 °F 77% 30.18 in 6.0 mi WNW 21.9 mph - 0.00 in Snow Light Snow